DW1850 Weather Reports


Display with metric or nautical units.
time (UTC)temp
F
wind
direction
speed
MPH
gust
MPH
rain 1hr
in
rain 24hr
in
rain mn
in
humidity
%
barometer
mb
20260906202956 98 161 0.0 5.0 0.00 0.00 0.00 46 1009.5
20260906195956 95 173 0.0 1.0 0.00 0.00 0.00 49 1009.7
20260906182953 95 173 0.0 1.0 0.00 0.00 0.00 54 1010.5
20260906175952 93 172 0.0 0.0 0.00 0.00 0.00 57 1011.0
20260906172952 88 173 0.0 0.0 0.00 0.00 0.00 71 1011.4
20260906165951 87 174 0.0 1.0 0.00 0.00 0.00 71 1012.1
20260906162950 88 174 0.0 0.0 0.00 0.00 0.00 71 1012.3
20260906155950 84 174 0.0 0.0 0.00 0.00 0.00 77 1012.1
20260906152948 84 174 0.0 0.0 0.00 0.00 0.00 77 1011.8
20260906145948 83 174 0.0 0.0 0.00 0.00 0.00 78 1011.4
20260906142947 82 174 0.0 6.0 0.00 0.00 0.00 82 1011.5
20260906135946 81 174 0.0 1.0 0.00 0.00 0.00 84 1011.2
20260906132945 79 174 0.0 0.0 0.00 0.00 0.00 86 1010.9
20260906122944 78 174 0.0 0.0 0.00 0.00 0.00 87 1010.2
20260906115943 78 174 0.0 0.0 0.00 0.00 0.00 86 1009.8
20260906112942 79 174 0.0 0.0 0.00 0.00 0.00 85 1009.2
20260906105942 79 174 0.0 0.0 0.00 0.00 0.00 84 1009.1
20260906102941 80 174 0.0 1.0 0.00 0.00 0.00 83 1009.2
20260906095940 80 174 0.0 1.0 0.00 0.00 0.00 82 1009.0
20260906092941 80 174 0.0 2.0 0.00 0.00 0.00 81 1009.2
20260906085938 81 174 1.0 7.0 0.00 0.00 0.00 79 1009.2
20260906082938 82 173 2.0 13.0 0.00 0.00 0.00 77 1009.1
20260906070006 83 165 1.0 10.0 0.00 0.00 0.00 75 1010.1
20260906063005 84 161 0.0 9.0 0.00 0.00 0.00 74 1010.2
20260906060004 84 160 0.0 8.0 0.00 0.00 0.00 72 1010.6
20260906053003 85 161 0.0 10.0 0.00 0.00 0.00 72 1010.3
20260906050003 85 162 2.0 14.0 0.00 0.00 0.00 70 1010.4
20260906043002 86 144 6.0 9.0 0.00 0.00 0.00 69 1010.2
20260906040001 87 128 0.0 10.0 0.00 0.00 0.00 66 1010.2
20260906033000 87 103 0.0 10.0 0.00 0.00 0.00 63 1010.1
20260906025959 88 99 10.0 23.0 0.00 0.00 0.00 60 1009.5
20260906022959 90 91 0.0 16.0 0.00 0.00 0.00 58 1008.7
20260906015958 90 106 8.0 15.0 0.00 0.00 0.00 57 1008.1
20260906012957 92 102 4.0 21.0 0.00 0.00 0.00 55 1007.8
20260906005956 94 98 1.0 14.0 0.00 0.00 0.00 49 1007.6
20260906002955 95 98 0.0 0.0 0.00 0.00 0.00 45 1007.5
20260905235955 97 98 0.0 10.0 0.00 0.00 0.00 42 1007.5
20260905232954 100 92 7.0 17.0 0.00 0.00 0.00 39 1007.2
20260905225953 101 88 0.0 0.0 0.00 0.00 0.00 37 1007.4
20260905222953 101 88 0.0 0.0 0.00 0.00 0.00 38 1007.3
20260905215952 99 88 0.0 0.0 0.00 0.00 0.00 39 1007.6
20260905212951 101 88 0.0 8.0 0.00 0.00 0.00 38 1007.8
20260905205950 99 84 0.0 13.0 0.00 0.00 0.00 40 1008.1